Regional Weather Roundup
Issued by NWS

Home | Current Version | Previous Version | Text Only | Print | Product List | Glossary Off
Versions: 1 2 3 4 5 6 7 8 9 10 11 12 13 14 15 16 17 18 19 20 21 22 23 24 25 26 27 28 29 30 31 32 33 34 35 36 37 38 39 40 41 42 43 44 45 46 47 48 49 50

000
ASUS45 KSLC 062010
RWRUT

UTAH REGIONAL WEATHER ROUNDUP
NATIONAL WEATHER SERVICE SALT LAKE CITY UT
200 PM MDT WED MAY 06 2015

UTZ001>011-023>025-062100-

NORTHERN UTAH

CITY           SKY/WX    TMP DP  RH WIND       PRES   REMARKS
HILL AFB       TSTM      50  47  90 NE6       29.78R VSB 1
LOGAN          CLOUDY    54  43  66 S9        29.76F
OGDEN          LGT RAIN  52  46  80 E10       29.75S
PROVO AIRPORT  CLOUDY    55  45  67 S17G23    29.78F
SALT LAKE CITY TSTM      61  40  45 E13       29.74S
VERNAL         CLOUDY    53  44  71 NW6       29.79F
WENDOVER       CLOUDY    52  43  71 S36G44    29.76R THUNDER
HEBER CITY     CLOUDY    61  36  39 SE3       29.74F
WEST JORDAN    CLOUDY    55  46  71 S13       29.75F

$$

UTZ012>022-026-027-062100-

SOUTHERN/CENTRAL UTAH

CITY           SKY/WX    TMP DP  RH WIND       PRES   REMARKS
BRYCE CANYON   LGT RAIN  54  36  50 S14G24    29.89F
CEDAR CITY     PTSUNNY   62  41  46 SW22G31   29.80F
DELTA          CLOUDY    58  44  60 SE5       29.78F
HANKSVILLE     MOSUNNY   72  37  28 S13G24    29.75F
MILFORD        PTSUNNY   66  43  43 S24G30    29.75F
MOAB/CYNLANDS  SUNNY     64  49  57 W16G22    29.73F
PRICE          CLOUDY    55  44  66 SW8       29.80F
ST GEORGE      CLOUDY    73  41  31 W8        29.75F
KANAB          PTSUNNY   64  36  34 S12       29.86F

$$

REGIONAL REPORTS     COLORADO/ARIZONA

CITY           SKY/WX    TMP DP  RH WIND       PRES   REMARKS
CRAIG, CO      CLOUDY    54  43  66 SW12      29.80F
GRAND JUNCTION CLOUDY    57  50  77 E8        29.78F THUNDER
RIFLE          LGT RAIN  53  44  71 NW3       29.81F
MONTROSE       LGT RAIN  54  46  74 NW17      29.86R
CORTEZ         PTSUNNY   64  45  49 S20       29.88F
PAGE, AZ       SUNNY     72  35  25 VRB6      29.78F
GRAND CANYON   PTSUNNY   59  33  37 S13G21    29.93F
KINGMAN        MOSUNNY   74  34  23 SW22G29   29.80F
FLAGSTAFF      PTSUNNY   55  29  36 SW21G28   29.96F

$$

REGIONAL REPORTS    NEVADA/IDAHO/WYOMING

CITY           SKY/WX    TMP DP  RH WIND       PRES   REMARKS
LAS VEGAS, NV  PTSUNNY   81  31  16 S9G21     29.65F
ELY            PTSUNNY   61  33  35 S10G20    29.76F
ELKO           MOSUNNY   63  26  24 W17G23    29.72F
POCATELLO, ID  MOSUNNY   61  27  27 VRB3      29.77F
BURLEY         PTSUNNY   56  31  38 W10       29.77F
EVANSTON, WY   CLOUDY    57  30  35 VRB3      29.79F
ROCK SPRINGS   PTSUNNY   59  31  34 W16G24    29.78S
KEMMERER       MOSUNNY   59  27  29 NW8G18    29.79F

$$


USA.gov is the U.S. government's official web portal to all federal, state and local government web resources and services.